iso_date,epoch_date,Year,Hour,Min,DOY,POS_DOY,Lat,Lon,BP,Ts,Ta,has_bp,has_ts,has_ta,BuoyID,Buoy_Type,Buoy_Owner,Logistics,Hemisphere
2019-11-18T06:00:00Z,1574056800,2019,6,0,322.25,322.25,55.24,-58.24,1014.6,1.25,-999.0,yes,yes,no,300234065715230,unknown,unknown,unknown,North
2019-11-18T07:00:02Z,1574060403,2019,7,0,322.2917,322.2917,55.231,-58.215,1015.0,1.24,-999.0,yes,yes,no,300234065715230,unknown,unknown,unknown,North
2019-11-18T07:59:57Z,1574063997,2019,8,0,322.3333,322.3333,55.22,-58.194,1015.2,1.23,-999.0,yes,yes,no,300234065715230,unknown,unknown,unknown,North
2019-11-18T09:00:00Z,1574067600,2019,9,0,322.375,322.375,55.208,-58.176,1015.7,1.23,-999.0,yes,yes,no,300234065715230,unknown,unknown,unknown,North
2019-11-18T10:00:02Z,1574071203,2019,10,0,322.4167,322.4167,55.197,-58.159,1015.7,1.21,-999.0,yes,yes,no,300234065715230,unknown,unknown,unknown,North
2019-11-18T10:59:57Z,1574074797,2019,11,0,322.4583,322.4583,55.19,-58.15,1016.3,1.23,-999.0,yes,yes,no,300234065715230,unknown,unknown,unknown,North
2019-11-18T12:00:00Z,1574078400,2019,12,0,322.5,322.5,55.185,-58.142,1016.6,1.24,-999.0,yes,yes,no,300234065715230,unknown,unknown,unknown,North
2019-11-18T13:00:02Z,1574082003,2019,13,0,322.5417,322.5417,55.179,-58.125,1016.3,1.23,-999.0,yes,yes,no,300234065715230,unknown,unknown,unknown,North
2019-11-18T13:59:57Z,1574085597,2019,14,0,322.5833,322.5833,55.176,-58.111,1016.3,1.22,-999.0,yes,yes,no,300234065715230,unknown,unknown,unknown,North
2019-11-18T15:00:00Z,1574089200,2019,15,0,322.625,322.625,55.172,-58.105,1016.4,1.22,-999.0,yes,yes,no,300234065715230,unknown,unknown,unknown,North
2019-11-18T16:00:02Z,1574092803,2019,16,0,322.6667,322.6667,55.172,-58.089,1016.4,1.23,-999.0,yes,yes,no,300234065715230,unknown,unknown,unknown,North
2019-11-18T16:59:57Z,1574096397,2019,17,0,322.7083,322.7083,55.167,-58.075,1016.6,1.22,-999.0,yes,yes,no,300234065715230,unknown,unknown,unknown,North
2019-11-18T18:04:01Z,1574100242,2019,18,4,322.7528,322.7528,55.166,-58.066,1017.0,1.2,-999.0,yes,yes,no,300234065715230,unknown,unknown,unknown,North
2019-11-18T19:00:02Z,1574103603,2019,19,0,322.7917,322.7917,55.166,-58.057,1016.8,1.2,-999.0,yes,yes,no,300234065715230,unknown,unknown,unknown,North
2019-11-18T19:59:57Z,1574107197,2019,20,0,322.8333,322.8333,55.165,-58.048,1017.2,1.19,-999.0,yes,yes,no,300234065715230,unknown,unknown,unknown,North
2019-11-18T21:01:00Z,1574110860,2019,21,1,322.8757,322.8757,55.162,-58.036,1017.0,1.19,-999.0,yes,yes,no,300234065715230,unknown,unknown,unknown,North
2019-11-18T22:00:02Z,1574114403,2019,22,0,322.9167,322.9167,55.16,-58.026,1017.3,1.18,-999.0,yes,yes,no,300234065715230,unknown,unknown,unknown,North
2019-11-18T22:59:57Z,1574117997,2019,23,0,322.9583,322.9583,55.157,-58.018,1017.2,1.17,-999.0,yes,yes,no,300234065715230,unknown,unknown,unknown,North
2019-11-19T00:04:01Z,1574121842,2019,0,4,323.0028,323.0028,55.154,-58.011,1018.0,1.16,-999.0,yes,yes,no,300234065715230,unknown,unknown,unknown,North
2019-11-19T01:00:02Z,1574125203,2019,1,0,323.0417,323.0417,55.151,-58.005,1017.7,1.17,-999.0,yes,yes,no,300234065715230,unknown,unknown,unknown,North
2019-11-19T01:59:57Z,1574128797,2019,2,0,323.0833,323.0833,55.149,-57.998,1017.4,1.17,-999.0,yes,yes,no,300234065715230,unknown,unknown,unknown,North
2019-11-19T03:00:00Z,1574132400,2019,3,0,323.125,323.125,55.145,-57.992,1017.1,1.17,-999.0,yes,yes,no,300234065715230,unknown,unknown,unknown,North
2019-11-19T04:00:02Z,1574136003,2019,4,0,323.1667,323.1667,55.142,-57.982,1017.5,1.19,-999.0,yes,yes,no,300234065715230,unknown,unknown,unknown,North
2019-11-19T05:00:57Z,1574139658,2019,5,1,323.209,323.209,55.137,-57.972,1017.3,1.18,-999.0,yes,yes,no,300234065715230,unknown,unknown,unknown,North
2019-11-19T06:00:00Z,1574143200,2019,6,0,323.25,323.25,55.133,-57.963,1017.6,1.17,-999.0,yes,yes,no,300234065715230,unknown,unknown,unknown,North
2019-11-19T07:00:02Z,1574146803,2019,7,0,323.2917,323.2917,55.128,-57.954,1017.6,1.17,-999.0,yes,yes,no,300234065715230,unknown,unknown,unknown,North
2019-11-19T08:00:57Z,1574150458,2019,8,1,323.334,323.334,55.124,-57.946,1017.3,1.16,-999.0,yes,yes,no,300234065715230,unknown,unknown,unknown,North
2019-11-19T09:00:00Z,1574154000,2019,9,0,323.375,323.375,55.12,-57.94,1017.6,1.15,-999.0,yes,yes,no,300234065715230,unknown,unknown,unknown,North
2019-11-19T10:00:02Z,1574157603,2019,10,0,323.4167,323.4167,55.117,-57.935,1017.2,1.17,-999.0,yes,yes,no,300234065715230,unknown,unknown,unknown,North
2019-11-19T10:59:57Z,1574161197,2019,11,0,323.4583,323.4583,55.114,-57.93,1017.2,1.16,-999.0,yes,yes,no,300234065715230,unknown,unknown,unknown,North
2019-11-19T12:01:00Z,1574164860,2019,12,1,323.5007,323.5007,55.11,-57.926,1017.1,1.15,-999.0,yes,yes,no,300234065715230,unknown,unknown,unknown,North
2019-11-19T13:00:02Z,1574168403,2019,13,0,323.5417,323.5417,55.109,-57.924,1017.3,1.17,-999.0,yes,yes,no,300234065715230,unknown,unknown,unknown,North
2019-11-19T13:59:57Z,1574171997,2019,14,0,323.5833,323.5833,55.11,-57.924,1017.1,1.17,-999.0,yes,yes,no,300234065715230,unknown,unknown,unknown,North
2019-11-19T15:00:00Z,1574175600,2019,15,0,323.625,323.625,55.111,-57.924,1017.0,1.18,-999.0,yes,yes,no,300234065715230,unknown,unknown,unknown,North
2019-11-19T16:00:02Z,1574179203,2019,16,0,323.6667,323.6667,55.108,-57.916,1016.4,1.29,-999.0,yes,yes,no,300234065715230,unknown,unknown,unknown,North
2019-11-19T16:59:57Z,1574182797,2019,17,0,323.7083,323.7083,55.106,-57.906,1015.7,1.22,-999.0,yes,yes,no,300234065715230,unknown,unknown,unknown,North
2019-11-19T18:00:00Z,1574186400,2019,18,0,323.75,323.75,55.103,-57.895,1015.5,1.21,-999.0,yes,yes,no,300234065715230,unknown,unknown,unknown,North
2019-11-19T19:00:02Z,1574190003,2019,19,0,323.7917,323.7917,55.101,-57.883,1015.7,1.25,-999.0,yes,yes,no,300234065715230,unknown,unknown,unknown,North
2019-11-19T19:59:57Z,1574193597,2019,20,0,323.8333,323.8333,55.096,-57.867,1016.1,1.22,-999.0,yes,yes,no,300234065715230,unknown,unknown,unknown,North
2019-11-19T21:00:00Z,1574197200,2019,21,0,323.875,323.875,55.091,-57.851,1016.0,1.24,-999.0,yes,yes,no,300234065715230,unknown,unknown,unknown,North
2019-11-19T22:00:02Z,1574200803,2019,22,0,323.9167,323.9167,55.086,-57.833,1016.1,1.25,-999.0,yes,yes,no,300234065715230,unknown,unknown,unknown,North
2019-11-19T22:59:57Z,1574204397,2019,23,0,323.9583,323.9583,55.08,-57.817,1016.1,1.24,-999.0,yes,yes,no,300234065715230,unknown,unknown,unknown,North
2019-11-20T00:00:00Z,1574208000,2019,0,0,324.0,324.0,55.076,-57.798,1016.0,1.29,-999.0,yes,yes,no,300234065715230,unknown,unknown,unknown,North
2019-11-20T01:00:02Z,1574211603,2019,1,0,324.0417,324.0417,55.072,-57.78,1016.1,1.26,-999.0,yes,yes,no,300234065715230,unknown,unknown,unknown,North
2019-11-20T01:59:57Z,1574215197,2019,2,0,324.0833,324.0833,55.066,-57.767,1016.2,1.23,-999.0,yes,yes,no,300234065715230,unknown,unknown,unknown,North
2019-11-20T03:00:00Z,1574218800,2019,3,0,324.125,324.125,55.062,-57.75,1016.0,1.23,-999.0,yes,yes,no,300234065715230,unknown,unknown,unknown,North
2019-11-20T04:00:02Z,1574222403,2019,4,0,324.1667,324.1667,55.057,-57.732,1015.9,1.24,-999.0,yes,yes,no,300234065715230,unknown,unknown,unknown,North
2019-11-20T04:59:57Z,1574225997,2019,5,0,324.2083,324.2083,55.052,-57.716,1015.8,1.25,-999.0,yes,yes,no,300234065715230,unknown,unknown,unknown,North
2019-11-20T06:00:00Z,1574229600,2019,6,0,324.25,324.25,55.049,-57.697,1016.3,1.45,-999.0,yes,yes,no,300234065715230,unknown,unknown,unknown,North
2019-11-20T07:00:02Z,1574233203,2019,7,0,324.2917,324.2917,55.05,-57.674,1016.7,1.29,-999.0,yes,yes,no,300234065715230,unknown,unknown,unknown,North
2019-11-20T07:59:57Z,1574236797,2019,8,0,324.3333,324.3333,55.046,-57.653,1017.0,1.28,-999.0,yes,yes,no,300234065715230,unknown,unknown,unknown,North
2019-11-20T09:00:00Z,1574240400,2019,9,0,324.375,324.375,55.042,-57.632,1017.6,1.28,-999.0,yes,yes,no,300234065715230,unknown,unknown,unknown,North
2019-11-20T10:00:02Z,1574244003,2019,10,0,324.4167,324.4167,55.04,-57.615,1018.3,1.29,-999.0,yes,yes,no,300234065715230,unknown,unknown,unknown,North
2019-11-20T10:59:57Z,1574247597,2019,11,0,324.4583,324.4583,55.037,-57.6,1019.1,1.32,-999.0,yes,yes,no,300234065715230,unknown,unknown,unknown,North
2019-11-20T12:04:01Z,1574251442,2019,12,4,324.5028,324.5028,-90.0,-180.0,1019.9,1.32,-999.0,yes,yes,no,300234065715230,unknown,unknown,unknown,North
2019-11-20T13:00:02Z,1574254803,2019,13,0,324.5417,324.5417,55.038,-57.583,1020.2,1.32,-999.0,yes,yes,no,300234065715230,unknown,unknown,unknown,North
2019-11-20T13:59:57Z,1574258397,2019,14,0,324.5833,324.5833,55.038,-57.579,1020.3,1.32,-999.0,yes,yes,no,300234065715230,unknown,unknown,unknown,North
2019-11-20T15:00:00Z,1574262000,2019,15,0,324.625,324.625,55.039,-57.577,1020.3,1.32,-999.0,yes,yes,no,300234065715230,unknown,unknown,unknown,North
2019-11-20T16:00:02Z,1574265603,2019,16,0,324.6667,324.6667,55.04,-57.572,1020.9,1.32,-999.0,yes,yes,no,300234065715230,unknown,unknown,unknown,North
2019-11-20T16:59:57Z,1574269197,2019,17,0,324.7083,324.7083,55.039,-57.569,1021.1,1.32,-999.0,yes,yes,no,300234065715230,unknown,unknown,unknown,North
2019-11-20T18:00:00Z,1574272800,2019,18,0,324.75,324.75,55.04,-57.567,1021.1,1.32,-999.0,yes,yes,no,300234065715230,unknown,unknown,unknown,North
2019-11-20T19:00:02Z,1574276403,2019,19,0,324.7917,324.7917,55.039,-57.565,1021.9,1.32,-999.0,yes,yes,no,300234065715230,unknown,unknown,unknown,North
2019-11-20T19:59:57Z,1574279997,2019,20,0,324.8333,324.8333,55.037,-57.558,1022.5,1.31,-999.0,yes,yes,no,300234065715230,unknown,unknown,unknown,North
2019-11-20T21:00:00Z,1574283600,2019,21,0,324.875,324.875,55.036,-57.554,1022.9,1.3,-999.0,yes,yes,no,300234065715230,unknown,unknown,unknown,North
2019-11-20T22:00:02Z,1574287203,2019,22,0,324.9167,324.9167,55.035,-57.548,1023.1,1.3,-999.0,yes,yes,no,300234065715230,unknown,unknown,unknown,North
2019-11-20T22:59:57Z,1574290797,2019,23,0,324.9583,324.9583,55.033,-57.542,1023.2,1.29,-999.0,yes,yes,no,300234065715230,unknown,unknown,unknown,North
2019-11-21T00:00:00Z,1574294400,2019,0,0,325.0,325.0,55.03,-57.537,1023.2,1.29,-999.0,yes,yes,no,300234065715230,unknown,unknown,unknown,North
2019-11-21T01:00:02Z,1574298003,2019,1,0,325.0417,325.0417,55.027,-57.532,1023.4,1.29,-999.0,yes,yes,no,300234065715230,unknown,unknown,unknown,North
2019-11-21T01:59:57Z,1574301597,2019,2,0,325.0833,325.0833,55.023,-57.526,1023.7,1.29,-999.0,yes,yes,no,300234065715230,unknown,unknown,unknown,North
2019-11-21T03:00:00Z,1574305200,2019,3,0,325.125,325.125,55.017,-57.52,1023.7,1.29,-999.0,yes,yes,no,300234065715230,unknown,unknown,unknown,North
2019-11-21T04:01:03Z,1574308863,2019,4,1,325.1674,325.1674,55.012,-57.514,1023.6,1.29,-999.0,yes,yes,no,300234065715230,unknown,unknown,unknown,North
2019-11-21T04:59:57Z,1574312397,2019,5,0,325.2083,325.2083,55.01,-57.509,1023.1,1.29,-999.0,yes,yes,no,300234065715230,unknown,unknown,unknown,North
2019-11-21T06:00:00Z,1574316000,2019,6,0,325.25,325.25,55.006,-57.502,1023.1,1.28,-999.0,yes,yes,no,300234065715230,unknown,unknown,unknown,North
2019-11-21T07:00:02Z,1574319603,2019,7,0,325.2917,325.2917,55.003,-57.495,1023.2,1.26,-999.0,yes,yes,no,300234065715230,unknown,unknown,unknown,North
2019-11-21T07:59:57Z,1574323197,2019,8,0,325.3333,325.3333,54.999,-57.486,1022.8,1.27,-999.0,yes,yes,no,300234065715230,unknown,unknown,unknown,North
2019-11-21T09:00:00Z,1574326800,2019,9,0,325.375,325.375,54.996,-57.474,1022.9,1.27,-999.0,yes,yes,no,300234065715230,unknown,unknown,unknown,North
2019-11-21T10:00:02Z,1574330403,2019,10,0,325.4167,325.4167,54.993,-57.462,1022.9,1.26,-999.0,yes,yes,no,300234065715230,unknown,unknown,unknown,North
2019-11-21T10:59:57Z,1574333997,2019,11,0,325.4583,325.4583,54.99,-57.449,1022.9,1.26,-999.0,yes,yes,no,300234065715230,unknown,unknown,unknown,North
2019-11-21T12:00:00Z,1574337600,2019,12,0,325.5,325.5,54.986,-57.436,1022.9,1.26,-999.0,yes,yes,no,300234065715230,unknown,unknown,unknown,North
2019-11-21T13:00:02Z,1574341203,2019,13,0,325.5417,325.5417,54.981,-57.425,1022.6,1.27,-999.0,yes,yes,no,300234065715230,unknown,unknown,unknown,North
2019-11-21T13:59:57Z,1574344797,2019,14,0,325.5833,325.5833,54.976,-57.413,1022.6,1.28,-999.0,yes,yes,no,300234065715230,unknown,unknown,unknown,North
2019-11-21T15:00:00Z,1574348400,2019,15,0,325.625,325.625,54.97,-57.402,1022.2,1.31,-999.0,yes,yes,no,300234065715230,unknown,unknown,unknown,North
2019-11-21T16:00:02Z,1574352003,2019,16,0,325.6667,325.6667,54.964,-57.39,1021.4,1.36,-999.0,yes,yes,no,300234065715230,unknown,unknown,unknown,North
2019-11-21T16:59:57Z,1574355597,2019,17,0,325.7083,325.7083,54.957,-57.379,1021.2,1.39,-999.0,yes,yes,no,300234065715230,unknown,unknown,unknown,North
2019-11-21T18:00:00Z,1574359200,2019,18,0,325.75,325.75,54.95,-57.367,1020.6,1.39,-999.0,yes,yes,no,300234065715230,unknown,unknown,unknown,North
2019-11-21T19:00:02Z,1574362803,2019,19,0,325.7917,325.7917,54.943,-57.354,1020.4,1.42,-999.0,yes,yes,no,300234065715230,unknown,unknown,unknown,North
2019-11-21T19:59:57Z,1574366397,2019,20,0,325.8333,325.8333,54.935,-57.338,1020.2,1.36,-999.0,yes,yes,no,300234065715230,unknown,unknown,unknown,North
2019-11-21T21:00:00Z,1574370000,2019,21,0,325.875,325.875,54.926,-57.323,1019.9,1.4,-999.0,yes,yes,no,300234065715230,unknown,unknown,unknown,North
2019-11-21T22:00:02Z,1574373603,2019,22,0,325.9167,325.9167,54.918,-57.306,1019.6,1.39,-999.0,yes,yes,no,300234065715230,unknown,unknown,unknown,North
2019-11-21T22:59:57Z,1574377197,2019,23,0,325.9583,325.9583,54.91,-57.29,1019.1,1.43,-999.0,yes,yes,no,300234065715230,unknown,unknown,unknown,North
2019-11-22T00:00:00Z,1574380800,2019,0,0,326.0,326.0,54.903,-57.274,1018.3,1.4,-999.0,yes,yes,no,300234065715230,unknown,unknown,unknown,North
2019-11-22T01:00:02Z,1574384403,2019,1,0,326.0417,326.0417,54.894,-57.26,1018.0,1.36,-999.0,yes,yes,no,300234065715230,unknown,unknown,unknown,North
2019-11-22T01:59:57Z,1574387997,2019,2,0,326.0833,326.0833,54.887,-57.248,1017.0,1.33,-999.0,yes,yes,no,300234065715230,unknown,unknown,unknown,North
2019-11-22T03:01:00Z,1574391660,2019,3,1,326.1257,326.1257,54.879,-57.237,1016.5,1.32,-999.0,yes,yes,no,300234065715230,unknown,unknown,unknown,North
2019-11-22T04:00:02Z,1574395203,2019,4,0,326.1667,326.1667,54.871,-57.228,1015.6,1.32,-999.0,yes,yes,no,300234065715230,unknown,unknown,unknown,North
2019-11-22T04:59:57Z,1574398797,2019,5,0,326.2083,326.2083,54.864,-57.221,1015.0,1.33,-999.0,yes,yes,no,300234065715230,unknown,unknown,unknown,North
2019-11-22T06:00:00Z,1574402400,2019,6,0,326.25,326.25,54.857,-57.217,1014.3,1.33,-999.0,yes,yes,no,300234065715230,unknown,unknown,unknown,North
2019-11-22T07:00:02Z,1574406003,2019,7,0,326.2917,326.2917,54.851,-57.213,1014.0,1.32,-999.0,yes,yes,no,300234065715230,unknown,unknown,unknown,North
2019-11-22T07:59:57Z,1574409597,2019,8,0,326.3333,326.3333,54.847,-57.208,1013.4,1.32,-999.0,yes,yes,no,300234065715230,unknown,unknown,unknown,North
2019-11-22T09:00:00Z,1574413200,2019,9,0,326.375,326.375,54.843,-57.202,1012.6,1.31,-999.0,yes,yes,no,300234065715230,unknown,unknown,unknown,North
2019-11-22T10:03:04Z,1574416984,2019,10,3,326.4188,326.4188,54.839,-57.197,1011.9,1.32,-999.0,yes,yes,no,300234065715230,unknown,unknown,unknown,North
2019-11-22T10:59:57Z,1574420397,2019,11,0,326.4583,326.4583,54.836,-57.188,1011.8,1.37,-999.0,yes,yes,no,300234065715230,unknown,unknown,unknown,North
2019-11-22T12:02:00Z,1574424121,2019,12,2,326.5014,326.5014,54.833,-57.18,1011.4,1.4,-999.0,yes,yes,no,300234065715230,unknown,unknown,unknown,North
2019-11-22T13:01:03Z,1574427663,2019,13,1,326.5424,326.5424,54.83,-57.174,1011.0,1.43,-999.0,yes,yes,no,300234065715230,unknown,unknown,unknown,North
2019-11-22T13:59:57Z,1574431197,2019,14,0,326.5833,326.5833,54.827,-57.169,1010.3,1.44,-999.0,yes,yes,no,300234065715230,unknown,unknown,unknown,North
2019-11-22T15:00:00Z,1574434800,2019,15,0,326.625,326.625,54.824,-57.164,1008.9,1.46,-999.0,yes,yes,no,300234065715230,unknown,unknown,unknown,North
2019-11-22T16:59:57Z,1574441997,2019,17,0,326.7083,326.7083,54.822,-57.16,1006.7,1.44,-999.0,yes,yes,no,300234065715230,unknown,unknown,unknown,North
2019-11-22T18:01:00Z,1574445660,2019,18,1,326.7507,326.7507,54.824,-57.16,1006.4,1.43,-999.0,yes,yes,no,300234065715230,unknown,unknown,unknown,North
2019-11-22T19:00:02Z,1574449203,2019,19,0,326.7917,326.7917,54.826,-57.157,1006.0,1.42,-999.0,yes,yes,no,300234065715230,unknown,unknown,unknown,North
2019-11-22T19:59:57Z,1574452797,2019,20,0,326.8333,326.8333,54.828,-57.154,1005.6,1.39,-999.0,yes,yes,no,300234065715230,unknown,unknown,unknown,North
2019-11-22T21:01:00Z,1574456460,2019,21,1,326.8757,326.8757,54.83,-57.147,1005.4,1.41,-999.0,yes,yes,no,300234065715230,unknown,unknown,unknown,North
2019-11-22T22:01:03Z,1574460063,2019,22,1,326.9174,326.9174,54.832,-57.138,1004.8,1.41,-999.0,yes,yes,no,300234065715230,unknown,unknown,unknown,North
2019-11-22T22:59:57Z,1574463597,2019,23,0,326.9583,326.9583,54.833,-57.127,1004.7,1.43,-999.0,yes,yes,no,300234065715230,unknown,unknown,unknown,North
2019-11-23T00:00:00Z,1574467200,2019,0,0,327.0,327.0,54.833,-57.115,1004.4,1.44,-999.0,yes,yes,no,300234065715230,unknown,unknown,unknown,North
2019-11-23T01:00:02Z,1574470803,2019,1,0,327.0417,327.0417,54.833,-57.103,1003.9,1.42,-999.0,yes,yes,no,300234065715230,unknown,unknown,unknown,North
2019-11-23T01:59:57Z,1574474397,2019,2,0,327.0833,327.0833,54.831,-57.09,1003.2,1.42,-999.0,yes,yes,no,300234065715230,unknown,unknown,unknown,North
2019-11-23T03:00:00Z,1574478000,2019,3,0,327.125,327.125,54.83,-57.079,1003.1,1.42,-999.0,yes,yes,no,300234065715230,unknown,unknown,unknown,North
2019-11-23T04:01:03Z,1574481663,2019,4,1,327.1674,327.1674,54.83,-57.066,1002.7,1.42,-999.0,yes,yes,no,300234065715230,unknown,unknown,unknown,North
2019-11-23T04:59:57Z,1574485197,2019,5,0,327.2083,327.2083,54.826,-57.057,1002.1,1.42,-999.0,yes,yes,no,300234065715230,unknown,unknown,unknown,North
2019-11-23T06:01:00Z,1574488860,2019,6,1,327.2507,327.2507,54.821,-57.052,1002.5,1.4,-999.0,yes,yes,no,300234065715230,unknown,unknown,unknown,North
2019-11-23T07:00:02Z,1574492403,2019,7,0,327.2917,327.2917,54.817,-57.048,1001.9,1.39,-999.0,yes,yes,no,300234065715230,unknown,unknown,unknown,North
2019-11-23T07:59:57Z,1574495997,2019,8,0,327.3333,327.3333,54.814,-57.045,1002.0,1.4,-999.0,yes,yes,no,300234065715230,unknown,unknown,unknown,North
2019-11-23T09:00:00Z,1574499600,2019,9,0,327.375,327.375,54.811,-57.039,1001.3,1.39,-999.0,yes,yes,no,300234065715230,unknown,unknown,unknown,North
2019-11-23T10:00:02Z,1574503203,2019,10,0,327.4167,327.4167,54.81,-57.033,1001.1,1.39,-999.0,yes,yes,no,300234065715230,unknown,unknown,unknown,North
2019-11-23T10:59:57Z,1574506797,2019,11,0,327.4583,327.4583,54.811,-57.026,1000.9,1.39,-999.0,yes,yes,no,300234065715230,unknown,unknown,unknown,North
2019-11-23T12:00:00Z,1574510400,2019,12,0,327.5,327.5,54.812,-57.019,1001.1,1.39,-999.0,yes,yes,no,300234065715230,unknown,unknown,unknown,North
2019-11-23T13:00:02Z,1574514003,2019,13,0,327.5417,327.5417,54.811,-57.009,1000.9,1.39,-999.0,yes,yes,no,300234065715230,unknown,unknown,unknown,North
2019-11-23T13:59:57Z,1574517597,2019,14,0,327.5833,327.5833,54.81,-57.001,1001.1,1.4,-999.0,yes,yes,no,300234065715230,unknown,unknown,unknown,North
2019-11-23T15:01:00Z,1574521260,2019,15,1,327.6257,327.6257,54.522,-55.763,1000.8,1.4,-999.0,yes,yes,no,300234065715230,unknown,unknown,unknown,North
2019-11-23T15:58:01Z,1574524682,2019,15,58,327.6653,327.6653,54.809,-56.987,1000.4,1.43,-999.0,yes,yes,no,300234065715230,unknown,unknown,unknown,North
2019-11-23T16:59:57Z,1574528397,2019,17,0,327.7083,327.7083,54.808,-56.979,1000.3,1.44,-999.0,yes,yes,no,300234065715230,unknown,unknown,unknown,North
2019-11-23T18:01:00Z,1574532060,2019,18,1,327.7507,327.7507,54.811,-56.973,999.8,1.46,-999.0,yes,yes,no,300234065715230,unknown,unknown,unknown,North
2019-11-23T19:00:02Z,1574535603,2019,19,0,327.7917,327.7917,54.811,-56.962,999.9,1.47,-999.0,yes,yes,no,300234065715230,unknown,unknown,unknown,North
2019-11-23T19:59:57Z,1574539197,2019,20,0,327.8333,327.8333,54.811,-56.949,999.7,1.47,-999.0,yes,yes,no,300234065715230,unknown,unknown,unknown,North
2019-11-23T21:00:00Z,1574542800,2019,21,0,327.875,327.875,54.816,-56.935,999.6,1.47,-999.0,yes,yes,no,300234065715230,unknown,unknown,unknown,North
2019-11-23T22:00:02Z,1574546403,2019,22,0,327.9167,327.9167,54.812,-56.919,999.5,1.46,-999.0,yes,yes,no,300234065715230,unknown,unknown,unknown,North
2019-11-23T22:59:57Z,1574549997,2019,23,0,327.9583,327.9583,54.811,-56.903,999.4,1.44,-999.0,yes,yes,no,300234065715230,unknown,unknown,unknown,North
2019-11-24T00:00:00Z,1574553600,2019,0,0,328.0,328.0,54.81,-56.889,999.4,1.45,-999.0,yes,yes,no,300234065715230,unknown,unknown,unknown,North
2019-11-24T01:00:02Z,1574557203,2019,1,0,328.0417,328.0417,54.813,-56.878,999.2,1.42,-999.0,yes,yes,no,300234065715230,unknown,unknown,unknown,North
2019-11-24T01:59:57Z,1574560797,2019,2,0,328.0833,328.0833,54.813,-56.865,999.1,1.4,-999.0,yes,yes,no,300234065715230,unknown,unknown,unknown,North
2019-11-24T03:01:00Z,1574564460,2019,3,1,328.1257,328.1257,54.814,-56.854,999.1,1.4,-999.0,yes,yes,no,300234065715230,unknown,unknown,unknown,North
2019-11-24T04:00:02Z,1574568003,2019,4,0,328.1667,328.1667,54.824,-56.849,998.9,1.39,-999.0,yes,yes,no,300234065715230,unknown,unknown,unknown,North
2019-11-24T04:59:57Z,1574571597,2019,5,0,328.2083,328.2083,54.823,-56.838,998.8,1.38,-999.0,yes,yes,no,300234065715230,unknown,unknown,unknown,North
2019-11-24T06:02:00Z,1574575321,2019,6,2,328.2514,328.2514,54.828,-56.833,998.8,1.38,-999.0,yes,yes,no,300234065715230,unknown,unknown,unknown,North
2019-11-24T07:00:02Z,1574578803,2019,7,0,328.2917,328.2917,54.834,-56.826,999.1,1.37,-999.0,yes,yes,no,300234065715230,unknown,unknown,unknown,North
2019-11-24T07:59:57Z,1574582397,2019,8,0,328.3333,328.3333,54.839,-56.818,999.6,1.37,-999.0,yes,yes,no,300234065715230,unknown,unknown,unknown,North
2019-11-24T09:00:00Z,1574586000,2019,9,0,328.375,328.375,54.843,-56.809,1000.0,1.36,-999.0,yes,yes,no,300234065715230,unknown,unknown,unknown,North
2019-11-24T10:00:02Z,1574589603,2019,10,0,328.4167,328.4167,54.848,-56.8,1000.6,1.36,-999.0,yes,yes,no,300234065715230,unknown,unknown,unknown,North
2019-11-24T12:00:00Z,1574596800,2019,12,0,328.5,328.5,54.853,-56.781,1002.3,1.36,-999.0,yes,yes,no,300234065715230,unknown,unknown,unknown,North
2019-11-24T13:00:02Z,1574600403,2019,13,0,328.5417,328.5417,54.853,-56.774,1003.3,1.36,-999.0,yes,yes,no,300234065715230,unknown,unknown,unknown,North
2019-11-24T15:00:00Z,1574607600,2019,15,0,328.625,328.625,54.855,-56.766,1004.5,1.38,-999.0,yes,yes,no,300234065715230,unknown,unknown,unknown,North
2019-11-24T16:00:02Z,1574611203,2019,16,0,328.6667,328.6667,54.858,-56.764,1004.9,1.39,-999.0,yes,yes,no,300234065715230,unknown,unknown,unknown,North
2019-11-24T16:59:57Z,1574614797,2019,17,0,328.7083,328.7083,54.861,-56.766,1005.7,1.4,-999.0,yes,yes,no,300234065715230,unknown,unknown,unknown,North
2019-11-24T18:00:00Z,1574618400,2019,18,0,328.75,328.75,54.868,-56.769,1006.5,1.41,-999.0,yes,yes,no,300234065715230,unknown,unknown,unknown,North
2019-11-24T19:00:02Z,1574622003,2019,19,0,328.7917,328.7917,54.872,-56.77,1007.5,1.42,-999.0,yes,yes,no,300234065715230,unknown,unknown,unknown,North
2019-11-24T19:59:57Z,1574625597,2019,20,0,328.8333,328.8333,54.876,-56.772,1008.4,1.42,-999.0,yes,yes,no,300234065715230,unknown,unknown,unknown,North
2019-11-24T21:02:00Z,1574629321,2019,21,2,328.8764,328.8764,54.882,-56.77,1008.8,1.42,-999.0,yes,yes,no,300234065715230,unknown,unknown,unknown,North
2019-11-24T22:00:02Z,1574632803,2019,22,0,328.9167,328.9167,54.887,-56.768,1009.2,1.42,-999.0,yes,yes,no,300234065715230,unknown,unknown,unknown,North
2019-11-24T22:59:57Z,1574636397,2019,23,0,328.9583,328.9583,54.891,-56.763,1009.9,1.42,-999.0,yes,yes,no,300234065715230,unknown,unknown,unknown,North